Regional Weather Roundup
Issued by NWS Goodland, KS

Home | Current Version | Previous Version | Text Only | Print | Product List | Glossary On
Versions: 1 2 3 4 5 6 7 8 9 10 11 12 13 14 15 16 17 18 19 20 21 22 23 24 25 26 27 28 29 30 31 32 33 34 35 36 37 38 39 40 41 42 43 44 45 46 47 48 49 50
000
ASUS43 KGLD 051408
RWRGLD

GOODLAND FORECAST AREA HOURLY WEATHER ROUNDUP
NATIONAL WEATHER SERVICE GOODLAND KS
800 AM MDT SAT SEP 05 2015

...OFFICIAL OBSERVATIONS...

CITY           SKY/WX    TMP DP  RH WIND       PRES   REMARKS
GOODLAND KS    CLOUDY    71  57  61 S12       29.93R
HILL CITY KS   CLOUDY    78  63  59 S17G24    29.91S
IMPERIAL NEB   CLOUDY    75  55  49 S15G21    29.87R
MCCOOK NEB     CLOUDY    78  58  49 S10       29.86S
AKRON CO       CLOUDY    67  50  54 SW10      29.94R
BURLINGTON CO  CLOUDY    73  50  44 S13       29.96R
LIMON CO       CLOUDY    58  52  80 CALM      30.03R
$$

...UNOFFICIAL OBSERVATIONS...

CITY           SKY/WX    TMP DP  RH WIND       PRES   REMARKS
COLBY KS       SUNNY     77  61  57 S15       29.93S
GOVE KS          N/A     77  32  19 MISG        N/A
LENORA KS        N/A     76  32  20 MISG        N/A
NORTON KS      SUNNY     75  57  53 S14       29.89S
SHARON SPRINGS   N/A     74  59  58 S16         N/A
TRENTON NEB      N/A     76  32  20 S7          N/A
KIT CARSON CO    N/A     67  52  59 MISG        N/A
YUMA CO          N/A     66  53  64 CALM        N/A
$$


USA.gov is the U.S. government's official web portal to all federal, state and local government web resources and services.